Location: Academy at Carrie F Thomas
(32.8490°N, 97.2053°W)
Time: 22:01:50
(UTC+00:00)

Meteor 1-25 Rocket - Pass Details

Date: 12 July 2022
Orbit: 836 x 892 km, 81.2° (Epoch: 07 August)

Event Time Altitude Azimuth Distance (km) Brightness Sun altitude
Exits shadow 07:37:52 40° 73° (ENE) 1,291 5.3 -33.1°
Drops below altitude 10° 07:42:32 10° 24° (NNE) 2,550 7.5 -32.8°
Sets 07:45:05 0° 17° (NNE) 3,486 8.5 -32.7°
